Location: Waco, TX
(31.5480°N, 97.1670°W)
Time: 15:07:40
(UTC-05:00)

ISS - Pass Details

Date: 13 September 2019
Orbit: 411 x 421 km, 51.6° (Epoch: 17 September)

Event Time Altitude Azimuth Distance (km) Brightness Sun altitude
Rises 07:52:32 0° 296° (WNW) 2,351 -0.5 7.9°
Reaches altitude 10° 07:55:10 10° 273° (W) 1,487 -1.6 8.5°
Maximum altitude 07:57:19 16° 233° (SW) 1,170 -1.9 8.9°
Drops below altitude 10° 07:59:28 10° 193° (SSW) 1,485 -1.1 9.4°
Sets 08:02:06 0° 171° (S) 2,346 0.2 9.9°
